Location: Ehrke Reservoir
(40.0279°N, 99.6641°W)
Time: 19:22:11
(UTC+00:00)

Cosmos 1602 Rocket - Pass Details

Date: 20 January 2020
Orbit: 603 x 634 km, 82.5° (Epoch: 21 February)

Event Time Altitude Azimuth Distance (km) Brightness Sun altitude
Rises 00:33:08 0° 186° (S) 2,893 7.3 -9.9°
Reaches altitude 10° 00:35:21 10° 186° (S) 1,986 6.5 -10.3°
Maximum altitude 00:39:46 89° 117° (ESE) 625 3.5 -11.1°
Drops below altitude 10° 00:44:10 10° 8° (N) 1,982 5.9 -11.9°
Sets 00:46:23 0° 8° (N) 2,887 6.7 -12.3°
